Wind_Speed
6 6 5 5 6 9 10 10 8 6 6 5 3 3 4 6 7 7 6 5 5 6 6 5 5 4 3 3 2 2 2 2 3 3 3 3 3 3 3 4 4 3 3 3 5 5 5 5 6 6 7 7 8 8 8 9 10 10 11 11 10 11 11 11 12 12 12 11 10 11 11 11 11 12 12 12 12 12 11 11 12 13 13 14 15 16 18 18
6 6 6 6 5 6 7 7 5 4 3 3 4 5 5 4 3 3 3 2 1 1 3 4 4 3 3 4 3 3 3 3 4 4 4 3 3 2 3 4 4 4 4 4 5 6 6 6 6 7 7 7 8 9 9 10 11 12 12 11 12 13 13 13 13 13 13 12 12 11 12 12 13 13 14 13 13 12 12 12 12 13 14 16 17 18 19 19
6 7 8 8 7 6 5 4 3 2 2 1 2 4 5 5 5 5 5 5 5 4 3 3 4 4 3 4 4 4 4 4 4 4 4 4 3 2 3 4 5 6 6 6 6 6 7 6 7 7 8 8 9 10 11 11 12 13 13 13 14 14 14 14 15 15 15 15 14 13 12 13 14 14 15 15 14 14 13 13 14 14 15 17 18 19 20 20
8 8 9 9 8 6 5 4 3 2 2 2 2 2 2 3 3 3 4 4 4 4 3 3 4 4 4 4 4 4 4 4 4 4 5 5 4 4 5 5 6 6 6 7 6 7 7 7 8 8 9 10 11 11 13 13 13 13 14 15 16 15 15 15 15 16 17 17 17 16 14 13 13 15 16 16 16 16 15 15 15 16 17 18 19 20 21 21
8 8 8 7 6 5 4 3 3 3 3 2 1 1 0 1 1 1 2 2 2 3 3 3 4 4 4 5 4 4 4 4 5 5 5 6 6 7 7 6 6 7 7 8 8 7 7 8 9 9 10 11 12 13 14 14 14 15 15 15 15 15 15 14 14 15 16 17 18 17 16 15 14 15 16 16 16 16 16 16 17 18 19 19 20 20 21 22
6 6 6 6 5 5 4 4 4 4 4 3 3 3 2 2 2 1 1 1 2 3 3 4 4 5 5 5 5 5 4 5 6 7 7 8 8 8 8 7 7 7 8 9 9 8 8 8 9 11 12 12 13 14 15 15 15 16 17 16 15 15 14 13 13 13 14 15 16 17 17 16 16 16 16 16 16 17 18 19 19 19 20 20 20 20 21 21
5 5 5 5 4 4 3 3 3 3 3 4 5 5 4 3 3 3 2 2 3 3 4 5 5 5 5 5 5 5 5 6 7 6 7 8 7 8 8 8 8 8 8 9 9 9 8 9 10 11 12 13 14 14 15 15 16 17 17 17 16 16 15 14 13 13 13 14 15 16 17 17 17 17 17 18 18 19 19 20 20 20 20 20 20 20 20 20
5 4 4 4 3 3 2 2 2 2 3 3 5 5 4 4 4 4 4 3 3 3 3 4 4 4 4 5 5 5 5 6 6 6 7 7 7 8 8 8 8 8 8 8 9 9 9 9 10 11 12 14 14 14 14 14 16 17 17 17 17 17 16 15 14 14 14 14 15 17 18 18 19 19 20 20 20 20 20 20 20 20 20 19 19 19 19 20
4 4 3 3 2 3 3 3 3 3 3 3 4 4 5 5 5 5 4 4 3 2 3 3 3 3 3 4 4 4 5 6 6 6 7 6 7 7 7 7 6 7 7 7 8 8 9 9 10 11 13 13 14 14 14 14 15 16 16 16 17 17 17 17 16 16 16 16 17 18 19 20 21 21 22 21 21 21 21 21 20 20 20 19 19 19 19 20
3 3 2 2 3 3 4 5 4 4 3 4 4 5 5 5 5 5 4 3 2 2 2 2 2 2 2 3 3 4 5 5 5 6 6 6 6 6 6 7 7 7 7 7 7 7 8 9 9 11 12 14 15 15 15 15 16 16 16 16 17 17 18 18 18 18 18 18 19 20 21 22 22 23 23 22 22 22 21 21 20 20 20 19 19 19 19 20
2 2 2 3 4 5 6 6 6 5 4 4 4 4 5 5 5 4 4 3 3 3 2 2 2 2 2 2 2 3 5 5 5 6 6 6 6 6 7 7 7 7 7 7 7 7 7 8 9 10 11 13 14 15 15 16 16 16 16 17 17 17 18 19 19 19 20 20 21 22 22 23 23 24 24 22 22 22 22 21 21 20 20 19 19 19 19 19
1 2 3 4 5 5 6 6 7 6 4 3 3 3 3 4 4 4 4 3 2 2 1 1 1 1 2 2 2 3 5 6 5 6 6 7 7 7 7 7 7 7 7 8 7 7 7 8 8 9 11 12 13 13 14 15 16 16 16 16 16 17 18 18 19 20 21 21 21 21 22 24 24 23 22 22 22 21 21 21 20 20 20 19 19 19 19 20
1 3 4 4 5 5 6 7 7 7 6 4 3 2 2 2 2 3 2 2 1 1 1 1 1 2 2 3 3 4 6 6 6 6 6 7 7 8 8 7 8 8 8 8 8 8 8 9 9 10 12 12 12 12 12 12 13 14 15 15 15 15 17 19 19 20 21 21 21 20 19 20 22 21 20 20 20 20 20 20 20 19 19 19 19 19 20 21
3 5 5 5 5 6 6 7 8 8 7 5 3 2 2 2 2 1 1 1 1 1 0 1 1 2 2 3 4 4 4 5 5 5 5 5 6 6 6 6 7 7 7 8 8 8 9 9 10 10 12 12 13 13 13 13 12 13 13 14 15 14 16 18 18 18 20 20 20 20 20 20 23 23 21 21 21 21 21 20 19 19 19 19 20 21 21 22
7 7 6 5 5 6 6 7 8 8 7 5 3 3 4 4 3 3 3 3 2 1 1 1 1 1 2 3 3 4 3 3 3 3 4 5 5 6 6 6 6 6 7 7 7 8 8 8 9 10 11 12 13 13 13 13 13 14 11 12 15 13 15 17 16 17 19 20 20 19 20 21 23 21 20 21 20 21 20 20 20 20 20 21 22 22 22 22
7 6 6 5 6 5 5 6 7 8 8 6 4 5 5 5 4 3 3 3 3 4 4 3 3 3 2 2 3 4 3 3 3 3 3 4 5 6 6 6 6 6 6 7 7 7 7 7 8 9 11 11 12 12 12 11 13 14 12 13 15 14 15 16 15 17 17 19 21 20 21 22 22 21 21 21 21 22 21 21 22 22 23 23 23 24 23 23
6 6 7 7 7 5 4 5 6 8 8 6 6 6 5 5 4 3 3 3 4 5 6 4 4 4 2 3 5 5 5 4 4 4 4 4 5 5 6 7 7 6 6 6 6 6 7 7 8 9 10 10 11 10 9 9 11 14 14 15 16 15 15 15 16 17 16 19 20 22 24 24 22 22 22 23 23 24 23 23 23 24 24 25 24 24 23 23
6 7 8 8 7 5 4 5 6 7 7 6 6 6 5 4 4 4 4 4 4 4 5 4 5 4 3 5 6 6 7 6 5 5 5 6 6 6 6 7 8 7 7 6 6 6 6 7 7 8 9 9 9 10 9 9 10 11 13 13 14 14 15 15 17 17 17 19 20 22 26 23 21 23 24 24 24 24 24 24 25 25 26 26 25 24 23 23
7 7 8 8 7 6 5 5 6 7 7 6 5 5 5 4 3 3 3 4 5 4 4 4 4 4 3 5 5 5 6 6 6 6 6 7 7 7 7 7 7 8 8 7 7 7 7 8 8 8 9 9 9 9 10 11 12 12 12 12 12 14 15 16 16 17 18 20 21 23 26 24 22 23 24 24 25 26 26 26 27 28 27 27 26 24 22 22
6 6 6 7 7 6 5 5 6 6 7 6 5 5 4 3 2 3 2 4 6 4 3 3 4 5 5 6 5 6 6 6 6 7 7 7 6 7 6 6 6 6 7 8 8 8 8 8 8 8 9 9 9 9 10 12 13 13 13 13 13 14 15 15 15 16 17 19 21 22 24 25 23 23 24 26 28 28 28 28 28 28 27 26 25 23 21 21
4 4 4 5 5 5 5 4 5 5 6 6 6 5 4 3 2 3 3 3 5 4 3 4 5 7 8 8 7 7 6 5 5 5 5 5 6 6 6 6 6 6 6 7 7 8 8 8 9 9 9 9 9 9 10 11 11 12 11 11 12 12 13 14 14 15 16 18 21 22 25 27 25 23 24 27 29 28 26 26 26 26 25 24 24 23 21 21
3 2 2 3 4 5 4 4 3 4 5 6 6 5 3 3 2 3 3 2 3 4 4 6 8 9 9 9 8 7 6 6 6 6 6 6 6 6 6 6 6 6 6 6 6 7 7 8 8 8 8 7 7 7 8 9 9 9 9 9 9 10 12 13 14 15 15 18 22 23 26 29 27 26 26 28 29 27 24 24 24 24 24 24 24 23 23 23
3 3 3 2 3 4 4 4 3 4 4 5 6 5 4 3 2 2 3 3 3 5 7 9 10 10 9 9 8 8 7 7 8 8 7 7 7 7 7 7 7 7 6 5 5 5 6 7 7 6 6 6 6 6 6 7 8 9 9 8 8 10 11 10 13 14 15 18 21 24 29 33 30 24 23 23 24 22 21 22 23 23 24 23 24 25 25 26
4 4 3 3 3 4 5 5 4 4 4 5 6 5 5 4 3 2 3 4 4 6 9 9 10 9 9 8 8 9 9 7 8 9 8 8 8 8 7 7 7 6 5 5 5 5 6 6 5 5 5 5 5 6 7 7 8 8 8 8 8 10 9 10 13 14 16 18 19 22 27 32 28 22 21 21 21 21 19 21 23 23 23 23 25 26 26 27
5 5 5 5 5 5 6 6 5 5 4 5 6 6 6 5 5 4 4 5 4 6 8 8 8 8 8 8 8 10 9 7 9 9 8 8 8 8 8 8 7 6 6 6 6 5 5 4 4 5 5 6 6 7 7 5 6 8 8 8 9 10 10 11 12 13 13 12 15 17 15 20 28 28 27 24 20 20 20 22 23 22 23 24 25 26 26 27
7 7 7 7 7 8 8 7 7 6 6 6 6 7 7 7 6 5 5 6 5 5 8 8 7 7 8 9 8 10 8 7 9 8 7 8 8 8 8 9 8 6 6 6 6 5 5 4 4 5 6 6 6 5 4 4 5 6 8 9 10 11 11 11 12 12 9 9 17 18 9 17 33 34 27 22 21 23 22 21 21 21 23 24 24 25 25 26
9 9 10 10 10 10 10 8 8 7 6 7 7 7 8 7 6 5 6 5 4 5 7 7 7 7 8 8 8 9 7 7 8 7 8 9 8 8 8 9 7 6 6 6 5 5 5 5 4 5 5 5 4 4 4 4 5 7 9 11 11 12 11 11 12 12 13 17 20 20 13 15 27 33 29 26 26 25 18 15 17 18 20 22 24 24 24 24
10 11 11 11 10 9 9 8 8 7 7 7 7 8 7 5 3 4 4 2 2 4 5 6 7 6 8 9 8 9 7 7 8 7 8 8 8 8 8 8 6 5 5 5 5 5 4 4 4 5 5 4 4 4 5 6 7 9 11 12 12 13 12 12 14 14 17 18 13 15 14 10 20 30 31 29 23 17 15 17 20 18 17 20 22 24 24 23
10 8 7 6 5 6 6 7 7 7 7 8 8 7 5 3 2 3 3 2 2 4 3 6 7 6 8 9 8 8 8 7 7 8 8 8 8 8 7 6 4 5 6 5 5 4 3 3 3 4 5 5 5 5 7 8 9 10 12 13 13 13 13 13 14 15 15 12 9 13 12 6 16 26 25 23 19 17 20 21 18 15 16 20 21 22 23 23
7 5 4 4 4 4 6 7 7 7 8 8 6 5 3 2 2 2 1 2 3 3 3 5 6 6 8 8 8 8 8 7 7 8 8 8 8 7 7 6 5 6 6 5 5 4 4 3 4 5 5 6 7 7 9 10 11 12 12 13 13 14 14 13 14 13 9 6 7 10 9 4 10 20 23 24 24 23 23 19 16 18 22 24 23 22 23 23
5 5 5 6 6 6 7 7 7 7 7 6 4 3 3 3 2 2 1 1 2 2 3 5 5 6 7 7 8 8 8 8 8 8 8 8 8 7 7 5 6 7 6 6 6 5 4 4 5 6 6 7 8 9 11 11 12 12 12 12 11 11 10 9 10 7 4 4 4 7 9 5 9 21 30 31 27 22 21 22 22 22 23 23 22 22 23 24
5 6 6 6 6 6 6 6 6 5 4 3 3 3 3 3 2 3 1 1 1 2 3 4 5 6 6 7 8 8 8 8 9 8 8 8 8 7 7 6 6 6 5 6 7 6 6 6 7 7 8 9 10 11 12 12 13 12 11 10 8 6 4 4 4 2 4 7 9 11 10 9 22 34 34 30 27 26 25 26 21 17 18 19 20 21 21 22
6 5 5 4 4 4 4 4 3 3 3 3 3 4 3 2 2 2 1 0 2 2 2 3 4 5 6 7 8 9 8 9 10 9 8 9 8 8 8 7 7 6 4 6 7 6 5 6 7 8 9 9 10 11 12 12 11 11 11 9 6 3 3 3 3 2 5 8 13 17 12 13 25 32 31 32 35 32 25 20 16 15 18 19 18 19 19 20
5 4 3 3 2 2 2 2 2 2 3 3 4 4 3 3 2 2 1 1 2 2 2 3 4 5 7 7 8 9 8 9 10 9 9 10 9 9 9 8 7 6 6 7 5 4 4 5 6 7 8 9 10 11 12 13 13 15 15 11 9 6 4 4 2 2 5 9 16 18 11 11 17 26 36 39 34 23 16 17 17 17 20 19 18 18 19 22
3 2 2 2 2 2 1 1 2 3 3 3 4 4 3 3 2 2 1 1 2 2 2 4 5 6 7 7 8 9 8 9 10 9 9 10 9 9 9 8 7 6 6 5 5 5 5 6 6 7 9 10 12 13 14 14 12 13 13 10 10 9 9 8 7 7 8 10 12 14 16 24 31 38 39 30 23 19 18 22 20 18 22 21 18 19 21 21
2 2 3 3 3 3 2 1 2 3 3 3 3 3 3 2 3 3 2 3 3 3 3 4 5 5 6 7 8 8 7 8 9 9 9 9 8 9 9 8 7 6 5 5 5 4 5 6 9 10 11 12 13 14 15 13 11 11 11 11 13 13 12 11 9 9 7 6 9 11 21 35 37 35 30 23 24 25 23 26 24 21 24 23 19 22 24 21
2 2 3 3 3 3 3 2 2 3 3 3 3 3 3 3 4 3 3 3 3 4 4 4 4 4 5 6 7 7 7 8 9 8 8 8 7 8 9 8 7 5 6 6 5 5 7 11 13 12 12 13 13 14 16 16 15 16 15 15 15 13 11 9 5 3 3 5 8 11 22 34 27 22 27 27 27 29 27 29 27 24 26 26 25 26 27 24
2 3 3 3 3 4 4 3 3 3 3 3 3 3 4 4 4 4 4 4 4 4 4 4 3 4 4 6 6 7 7 7 8 8 7 7 7 8 8 7 7 7 7 7 6 8 9 11 11 10 10 11 11 13 16 17 17 17 18 18 15 10 7 6 4 3 4 3 5 8 17 32 34 29 33 33 30 33 32 29 27 27 28 28 28 28 27 26
3 3 4 4 4 5 5 5 4 4 4 3 3 3 4 4 4 4 4 4 3 3 3 3 3 3 4 5 6 6 6 6 7 7 6 7 7 8 8 7 8 8 8 8 8 9 9 8 9 10 11 11 13 14 16 17 16 16 19 20 19 15 12 11 8 6 4 2 6 6 6 24 42 40 38 36 34 34 31 29 30 30 29 28 28 28 28 27
3 4 4 4 4 6 6 6 4 4 4 4 4 4 4 5 4 4 4 4 3 3 2 2 3 3 3 4 5 6 6 5 6 7 6 7 8 8 8 8 9 9 9 10 9 11 12 9 9 13 15 14 14 15 16 18 17 18 20 20 20 18 14 13 14 15 11 4 5 4 4 28 52 48 40 38 33 30 30 32 34 30 27 27 26 27 28 29
3 3 3 4 5 7 7 6 5 4 4 4 5 5 5 5 4 4 3 3 2 1 1 1 2 3 3 4 4 5 6 5 6 7 7 8 8 7 8 10 11 10 10 11 11 11 11 11 14 19 20 18 18 19 20 22 21 22 23 22 22 19 13 9 9 15 16 11 8 3 6 37 58 47 39 37 31 31 35 35 34 29 27 27 26 27 30 31
2 3 4 5 6 7 7 6 5 5 5 5 5 5 4 4 4 4 3 2 1 1 1 1 2 3 3 4 4 5 7 6 6 6 8 8 9 9 10 11 11 11 12 12 11 12 12 14 19 23 22 20 20 20 19 19 20 21 22 22 22 21 19 13 7 10 13 14 17 9 7 39 60 47 38 37 34 37 37 34 32 29 27 28 27 29 31 33
4 5 6 6 7 7 7 6 6 5 5 6 5 5 4 4 4 3 3 2 2 3 2 3 3 3 4 5 5 6 7 7 6 7 8 9 10 11 11 12 12 12 13 12 12 12 12 13 18 24 26 23 19 16 13 13 15 17 20 21 20 21 22 19 18 19 14 15 19 7 6 40 60 49 41 41 40 40 35 31 30 29 29 30 30 32 33 33
6 6 6 6 7 7 6 5 5 5 5 6 5 4 4 4 4 4 4 4 4 3 4 5 5 5 5 6 6 7 7 7 8 9 9 10 11 12 12 13 13 13 14 14 14 13 12 13 16 18 19 16 13 10 9 12 16 19 22 22 21 23 22 21 25 24 18 25 27 10 12 45 58 51 48 45 41 40 33 27 28 29 32 33 32 33 33 32
6 6 5 5 5 5 5 6 7 6 5 5 5 5 5 4 4 4 5 5 5 5 5 6 6 7 7 7 8 8 8 9 10 10 10 12 13 13 13 14 15 16 16 16 17 17 17 20 19 14 9 7 9 10 13 20 24 27 31 29 28 27 23 22 22 18 18 27 26 21 30 55 60 53 49 42 36 35 30 25 27 30 32 33 33 33 34 34
5 5 5 4 4 5 6 6 7 7 6 5 5 5 5 5 6 6 6 6 6 7 7 7 7 8 8 8 9 9 10 11 11 12 12 13 14 14 15 16 17 18 18 18 19 19 20 24 23 21 21 20 22 23 25 29 31 33 36 35 33 32 29 27 22 24 31 30 28 39 51 58 59 53 46 38 30 28 27 26 28 30 31 32 33 35 37 37
5 4 4 4 4 4 6 6 6 6 5 5 6 6 7 7 7 7 7 7 7 8 9 9 9 9 9 10 11 11 11 11 13 14 13 14 16 16 17 18 19 19 20 20 19 19 22 26 26 25 29 31 31 31 30 31 33 36 38 38 38 36 34 34 32 38 42 29 30 51 54 49 54 53 44 35 27 26 28 28 28 29 31 34 36 37 38 37
4 4 5 4 4 4 6 6 6 6 6 6 6 6 7 8 8 9 9 9 9 9 10 10 9 11 12 11 12 13 12 13 15 15 14 15 18 18 19 20 20 21 20 19 20 19 22 27 28 27 30 32 32 33 32 32 34 37 38 39 39 36 36 39 40 45 44 35 39 54 52 48 53 48 38 30 27 27 29 26 26 30 34 37 38 39 38 37
4 5 5 5 4 5 5 6 5 6 7 7 7 8 8 9 9 10 10 11 11 11 12 12 11 13 13 13 15 15 14 15 17 17 17 19 20 20 21 22 21 22 22 20 21 21 21 26 29 29 30 32 32 33 34 33 35 38 40 40 40 40 41 42 42 41 42 45 50 52 50 51 47 37 32 30 28 28 26 25 29 33 36 39 40 40 39 38
5 5 5 5 5 5 5 6 6 6 7 8 9 9 9 10 11 11 12 12 13 13 13 13 13 15 15 16 17 16 15 18 19 19 20 22 22 22 23 23 23 24 25 25 24 23 23 26 29 31 32 34 32 32 32 32 34 38 43 43 40 37 36 35 35 34 36 42 43 41 46 49 39 30 31 32 29 27 26 28 33 35 37 39 40 40 40 40
5 5 5 5 5 5 6 6 6 7 8 9 10 10 10 11 12 13 14 14 15 15 15 15 16 17 17 18 18 17 18 21 21 21 23 24 24 24 25 26 27 27 29 28 28 27 26 28 31 30 29 34 35 31 31 32 34 41 44 36 26 24 26 29 31 31 31 35 36 36 41 43 35 31 33 33 29 27 29 33 35 36 38 40 40 41 41 42
5 5 5 5 6 6 6 6 7 8 8 9 11 11 12 13 13 15 16 15 16 16 16 17 18 19 20 20 20 19 20 22 23 24 25 25 26 27 28 29 29 30 31 30 29 30 29 30 32 25 22 32 35 29 29 30 28 33 34 27 23 27 32 35 34 29 27 31 34 35 37 38 36 34 33 31 29 31 34 36 35 36 39 41 41 42 43 44
Wind_Direction
131 135 132 132 150 166 169 162 150 139 134 136 139 140 130 119 104 91 79 63 51 34 16 5 3 359 346 335 325 303 295 288 291 297 288 275 273 268 265 269 263 257 256 253 259 263 260 254 254 253 252 252 248 243 237 229 224 222 222 222 229 235 237 243 246 250 256 262 264 261 259 259 257 252 248 245 247 247 245 242 241 244 248 252 258 263 266 266
123 121 117 118 130 150 169 182 195 212 214 211 221 230 233 229 217 180 140 134 139 4 346 328 321 325 327 317 310 309 311 314 315 304 291 290 290 292 295 288 280 275 274 270 263 262 260 255 255 255 253 250 244 240 234 229 227 228 232 233 237 241 242 247 249 251 256 259 260 258 255 255 255 253 250 249 252 251 249 247 247 251 256 260 265 267 267 268
114 107 107 109 111 113 122 141 161 181 190 187 199 222 237 244 244 232 215 213 233 245 249 266 282 292 299 292 296 306 313 318 315 299 288 291 289 300 321 307 293 289 284 281 272 263 259 254 251 248 244 239 236 235 233 232 233 235 239 239 244 251 251 252 253 253 255 256 256 255 252 250 249 248 248 249 252 250 249 253 257 261 265 269 271 271 271 270
106 101 100 101 102 102 97 92 93 91 86 91 120 164 205 218 223 222 221 224 234 242 240 237 257 281 287 283 292 301 309 310 294 290 292 288 273 277 303 299 285 282 282 281 275 267 263 258 252 246 240 234 231 232 232 233 236 239 241 242 249 255 255 254 255 254 253 253 252 251 250 249 245 244 245 246 247 248 252 258 264 267 269 271 272 271 270 269
101 95 91 88 84 81 76 67 52 45 44 41 50 64 110 212 225 225 230 233 237 244 249 246 249 261 269 276 284 287 299 294 275 282 289 282 273 277 287 286 276 275 276 276 273 266 261 258 254 249 242 237 233 232 233 235 237 241 244 246 249 252 253 254 254 253 251 248 246 247 248 247 244 241 240 241 244 249 255 261 265 268 269 270 269 268 267 266
96 86 81 76 69 63 59 56 48 40 25 16 21 24 28 31 25 6 324 275 265 264 261 257 253 255 261 268 272 272 276 275 274 279 280 278 277 279 283 282 279 278 276 276 273 265 257 253 250 247 245 242 238 236 238 239 240 244 248 251 252 253 255 256 254 252 250 244 241 243 245 244 242 239 238 240 246 253 258 263 267 269 270 270 269 267 266 264
87 80 77 70 58 48 46 46 44 33 13 9 14 17 20 19 11 354 335 305 281 272 265 258 256 257 261 265 271 273 270 272 277 278 276 277 278 278 281 280 279 278 276 275 273 268 260 252 247 247 245 244 243 243 244 245 247 250 252 254 256 256 257 258 257 255 250 243 239 239 240 240 241 241 243 246 253 258 261 265 269 271 271 270 269 268 266 264
80 75 69 59 44 29 20 11 11 9 354 353 1 360 357 355 344 332 325 310 292 279 267 263 265 266 270 274 277 278 274 277 284 284 281 281 281 280 278 278 275 273 271 268 267 265 260 255 250 247 246 246 247 249 250 251 253 254 256 258 258 257 258 259 258 257 252 245 240 239 240 241 244 247 249 253 257 260 264 268 272 272 272 271 269 268 266 264
81 72 61 47 30 12 3 357 356 354 337 327 335 336 333 334 330 323 318 309 300 288 279 277 277 278 282 279 277 274 273 282 289 284 284 283 280 279 279 277 274 271 268 263 259 255 255 254 250 248 250 251 251 252 254 253 253 256 259 259 258 257 258 259 259 258 254 247 243 242 244 246 248 251 254 256 259 263 267 270 273 273 272 271 269 267 266 264
76 69 59 41 25 7 1 359 353 346 327 311 310 312 314 318 316 311 309 306 295 281 277 278 276 276 274 274 279 276 274 285 286 277 280 279 275 273 274 274 272 271 270 266 260 254 252 249 247 246 248 251 250 250 252 251 251 255 258 259 260 261 260 260 260 258 253 249 248 248 249 251 252 254 258 261 264 267 270 271 272 271 270 270 269 268 267 266
66 57 44 29 19 10 5 2 358 350 327 306 299 296 297 300 299 299 303 301 290 279 272 275 275 266 262 271 297 289 277 281 277 275 278 275 274 271 269 271 270 270 268 268 266 261 256 250 248 244 243 248 249 251 251 251 253 255 258 260 260 261 261 260 257 256 253 250 251 253 253 254 255 260 264 267 268 269 271 271 271 271 270 269 269 269 269 268
37 38 35 30 26 25 20 14 12 6 353 335 315 302 294 288 290 298 304 306 305 298 284 269 252 241 244 257 292 301 291 288 281 278 278 277 277 275 272 269 266 266 264 262 261 259 257 253 248 241 241 247 251 253 253 254 255 256 258 259 259 260 259 258 257 256 254 254 255 257 259 260 262 266 268 268 268 269 269 269 269 269 268 267 267 268 269 269
42 53 52 50 45 40 30 21 17 14 9 357 342 338 323 312 317 313 311 320 330 335 314 268 263 260 253 260 281 300 299 298 296 286 284 283 281 280 277 272 268 264 260 258 255 252 251 249 244 241 243 247 251 253 255 257 257 256 256 256 256 257 257 257 258 257 256 257 259 261 263 266 271 273 272 271 270 270 268 268 268 266 264 265 266 268 269 268
81 81 73 64 51 39 28 21 17 16 14 8 8 21 39 50 44 37 37 40 39 25 329 264 276 259 252 269 289 306 308 306 302 294 295 298 294 292 286 282 279 272 266 261 257 254 249 245 243 244 246 248 251 253 257 260 260 259 257 255 253 252 258 261 260 260 260 261 264 264 263 269 277 279 277 276 275 274 273 271 268 266 267 269 271 272 271 268
89 83 70 51 34 27 22 21 20 20 20 20 36 61 71 76 79 81 80 69 56 46 27 325 321 285 269 295 318 332 340 329 307 303 320 320 312 309 305 303 296 289 283 273 267 264 258 253 250 250 251 252 253 257 261 262 262 260 251 253 256 249 258 267 265 264 265 267 269 267 264 271 278 280 279 278 276 274 273 271 269 270 272 275 276 275 272 268
85 72 54 34 20 16 17 25 29 29 30 35 59 76 79 81 83 83 81 66 53 35 18 359 0 352 307 312 338 346 359 353 336 337 334 319 314 315 315 314 309 304 298 288 280 273 268 266 263 260 260 260 261 260 262 260 258 258 249 251 260 258 264 271 270 270 271 270 270 266 264 271 277 278 277 275 274 273 271 270 271 273 275 276 276 273 269 264
76 61 47 33 22 23 30 36 39 39 39 47 65 74 76 76 81 82 72 53 39 20 12 3 3 358 338 343 343 348 358 353 344 334 319 313 314 317 316 315 313 310 303 292 284 278 273 270 266 267 266 264 263 257 252 247 247 257 258 257 264 267 266 271 274 276 275 272 272 269 268 272 277 276 275 274 272 270 269 270 272 274 274 274 272 269 265 262
69 57 50 40 32 41 53 45 45 45 43 49 62 68 70 71 73 72 61 44 28 15 13 10 8 0 342 346 342 343 344 336 330 324 318 320 320 317 316 317 315 312 307 297 289 286 280 277 276 274 271 267 264 255 243 244 249 258 264 263 267 271 270 273 277 279 278 276 275 273 273 278 281 277 274 274 272 270 271 271 272 274 274 274 271 267 262 260
68 57 51 44 40 50 60 50 47 45 41 44 56 63 64 64 59 51 43 35 25 18 22 23 20 17 354 343 337 331 328 322 319 319 318 317 315 315 314 314 313 311 308 304 298 294 290 289 286 281 276 271 270 263 253 258 263 263 265 265 268 275 278 279 280 280 280 279 277 276 278 282 282 277 276 275 273 272 273 273 274 277 278 277 273 266 260 258
66 57 49 46 45 50 57 51 45 41 37 36 43 53 56 52 48 34 32 40 25 13 30 32 15 11 360 346 338 326 324 322 315 313 313 311 312 316 315 311 306 301 299 299 297 296 294 292 287 283 280 278 277 272 266 266 267 267 270 273 276 279 280 283 284 282 282 281 281 282 281 282 282 280 277 274 273 275 276 278 280 281 281 279 271 262 256 255
50 46 44 45 41 43 47 43 38 33 30 28 28 39 44 41 49 31 22 33 20 10 24 20 6 2 354 347 344 337 332 328 322 322 321 320 324 324 319 315 307 300 297 294 294 295 295 290 284 282 280 279 277 271 269 268 268 273 275 277 281 280 281 286 285 284 287 284 284 286 283 284 288 285 278 273 275 280 282 281 280 277 274 269 262 255 252 252
359 351 4 29 28 28 24 16 16 13 15 17 16 23 25 19 27 22 22 16 4 8 13 10 6 1 355 351 349 347 343 339 341 345 342 338 336 328 322 321 314 309 306 298 297 297 294 284 277 277 274 272 271 268 269 269 271 274 273 279 283 285 290 292 289 290 291 286 288 291 288 289 293 289 283 279 281 286 285 279 274 270 266 261 258 252 249 250
318 316 312 330 352 355 348 345 342 341 356 1 2 6 358 350 348 5 27 2 343 3 6 2 0 357 356 355 352 353 351 347 347 346 343 340 336 331 327 324 321 318 312 307 307 296 285 279 274 275 273 272 272 270 271 271 271 267 269 279 282 288 294 290 293 297 295 290 292 298 298 299 302 298 292 289 288 290 286 279 275 271 271 268 262 254 250 251
302 310 303 290 302 316 313 314 318 323 333 340 345 349 343 340 330 321 351 346 341 0 359 356 353 352 354 354 352 352 347 342 343 341 337 333 331 332 329 328 327 324 320 315 311 297 282 279 279 278 274 279 279 273 274 271 271 274 280 287 288 296 299 290 295 301 301 298 299 308 308 305 306 307 307 305 298 296 290 283 281 279 279 275 268 264 262 260
293 297 295 287 284 292 293 292 301 308 311 321 329 335 333 327 319 312 322 328 328 346 349 350 350 348 353 354 350 347 343 338 340 337 332 331 331 333 332 333 333 327 321 319 317 315 308 296 288 284 280 284 282 278 282 279 282 292 298 304 303 306 305 299 302 306 305 298 303 321 321 303 304 307 310 313 307 305 301 292 290 287 284 280 278 277 273 268
287 286 284 281 279 278 279 280 287 291 297 308 315 324 327 321 317 312 313 308 293 326 345 350 352 354 353 352 347 345 342 335 337 334 332 335 336 338 337 334 333 326 320 324 326 322 319 315 301 293 289 288 288 286 294 305 306 301 304 312 310 309 309 304 305 306 301 290 301 314 307 294 303 306 310 316 316 315 310 303 300 293 286 284 286 285 279 274
281 280 277 276 275 271 270 270 270 275 287 296 305 317 321 317 316 315 317 306 278 315 341 347 350 352 351 350 347 349 348 338 340 341 341 343 341 342 339 333 333 327 324 329 323 310 304 305 296 292 287 282 287 291 306 321 313 302 308 315 313 313 313 305 305 301 295 297 300 302 294 284 292 299 306 312 314 318 317 315 315 306 294 287 286 285 281 277
285 281 278 278 276 268 261 256 255 265 276 285 299 313 315 310 309 310 307 293 300 322 337 350 351 348 350 351 347 351 353 343 345 346 347 350 346 343 338 335 335 331 336 333 315 306 298 293 284 280 273 266 277 294 311 320 315 309 313 315 313 313 310 303 303 296 297 304 298 293 299 283 277 292 305 310 314 322 320 317 317 312 306 297 290 287 281 276
290 282 282 282 275 260 250 245 250 260 270 283 297 304 302 289 295 310 281 241 315 327 336 351 353 351 349 350 350 353 354 350 350 348 350 354 351 349 343 341 348 344 344 334 323 324 306 296 288 277 271 276 291 304 312 314 312 312 312 311 309 307 305 301 297 292 296 299 274 279 292 280 285 294 302 311 318 321 317 315 311 307 311 308 300 293 287 279
281 270 275 272 264 253 248 248 254 263 272 283 291 286 274 231 238 291 258 263 305 319 339 344 348 353 349 350 355 357 356 359 356 352 356 358 356 358 355 355 356 349 348 341 335 331 309 296 284 280 280 288 297 301 304 305 306 309 308 307 308 306 304 298 292 292 294 279 257 277 279 251 291 295 296 307 317 318 316 316 307 303 307 307 301 293 288 282
257 267 273 268 263 255 254 256 259 266 271 275 269 249 227 202 223 245 235 310 309 310 341 344 347 351 350 356 0 360 4 6 3 3 5 3 3 6 4 360 349 346 350 349 339 325 304 287 278 279 278 284 292 293 295 298 300 302 302 307 311 309 306 295 286 284 269 267 264 283 289 241 240 280 297 308 315 318 316 316 313 308 307 307 302 293 287 283
268 283 277 270 262 254 256 255 256 261 256 246 225 208 193 191 228 253 237 336 315 308 334 343 349 351 358 6 6 8 13 11 8 9 8 9 11 8 7 1 353 350 342 339 336 319 299 285 277 277 278 282 286 286 291 295 297 296 298 305 308 306 305 277 266 266 255 272 281 285 293 258 256 280 300 312 317 318 317 319 319 315 313 310 304 299 292 287
283 281 269 265 259 255 258 251 249 246 221 207 199 187 176 191 223 228 176 34 336 343 359 359 358 2 11 15 13 15 18 15 13 14 13 14 13 9 10 4 1 1 342 336 335 322 307 294 284 279 279 279 278 280 285 289 292 291 290 292 289 290 310 272 250 291 276 271 284 289 292 273 271 289 309 315 317 317 318 324 322 315 319 315 305 303 300 297
288 273 261 255 249 245 247 241 229 209 188 181 183 181 192 218 217 175 149 30 17 33 37 25 18 18 20 19 19 19 20 16 14 16 15 13 14 12 8 2 1 357 346 340 329 315 299 291 292 283 277 278 278 279 278 280 283 284 283 278 265 252 257 273 261 275 297 298 293 288 281 264 274 299 311 312 315 319 324 328 320 313 320 318 307 304 304 302
279 266 237 203 188 162 141 166 192 185 177 174 178 186 210 226 200 164 144 78 65 53 45 43 33 26 24 22 20 19 20 16 12 15 14 10 11 8 3 1 357 350 347 339 319 306 282 281 297 287 277 278 278 278 277 279 281 279 277 266 257 255 251 262 269 267 288 304 287 269 265 273 287 305 315 317 322 327 327 325 319 312 318 321 310 304 304 299
242 220 191 177 160 141 132 140 176 177 166 165 179 194 203 187 164 153 124 98 80 63 64 52 32 28 27 20 18 17 17 13 9 12 11 5 4 3 0 359 353 348 344 330 315 302 276 285 300 292 282 277 275 277 275 273 271 270 269 264 268 274 265 259 269 276 272 279 276 264 275 287 297 313 327 336 334 330 327 325 323 317 319 324 318 310 309 299
212 197 192 189 176 156 142 144 166 173 160 158 177 187 180 158 144 130 115 103 87 74 69 54 32 32 27 17 16 15 14 12 7 6 4 359 359 356 354 353 350 347 336 324 312 297 290 296 300 292 283 280 277 278 276 271 268 266 267 271 277 282 272 256 257 276 232 252 275 262 277 291 294 305 321 329 330 328 327 325 327 325 323 326 322 317 314 304
218 223 224 216 198 172 150 145 156 162 158 159 156 159 166 159 139 120 113 108 98 81 65 59 43 33 27 16 11 9 10 9 2 0 359 355 351 347 347 348 345 338 330 324 309 302 304 304 305 298 286 284 282 278 278 278 274 269 268 271 272 269 261 248 237 271 262 258 280 261 274 286 283 287 308 317 319 322 325 325 327 328 326 325 321 315 309 301
229 250 247 226 204 177 152 141 147 155 160 163 156 160 163 151 136 125 118 107 100 88 68 60 41 26 20 11 6 1 358 355 352 352 349 346 344 338 339 341 338 334 329 322 309 306 306 297 298 301 292 289 287 279 278 282 281 276 271 268 266 261 257 255 240 245 269 263 284 283 261 284 290 295 304 311 316 319 321 323 325 327 325 321 316 309 301 295
240 253 241 213 193 170 148 140 146 158 166 169 174 178 162 144 140 134 125 112 106 100 75 50 25 16 3 357 359 353 347 339 338 339 332 334 340 336 333 333 332 329 323 317 311 308 302 283 278 294 294 289 288 286 284 285 282 277 273 270 269 264 257 262 255 249 257 253 282 305 249 282 294 300 301 309 319 320 320 323 324 325 321 315 309 302 296 292
244 234 211 189 179 163 148 144 148 155 167 171 172 170 156 152 155 144 141 141 132 123 67 23 357 354 346 341 342 342 340 328 326 332 325 327 334 331 326 325 324 322 316 314 312 305 299 285 277 285 290 290 293 294 289 285 281 278 276 273 274 270 255 259 263 250 247 239 247 255 270 286 293 299 302 311 319 319 322 324 322 320 315 310 306 299 295 294
209 191 176 170 169 160 151 150 151 157 175 179 170 161 156 165 165 157 170 183 187 227 264 315 320 323 325 327 324 326 330 320 315 323 322 323 325 319 319 319 317 316 313 311 309 303 298 289 284 288 295 297 297 295 288 284 282 276 274 272 273 270 256 245 246 253 247 239 249 244 252 284 291 297 303 312 318 317 322 323 320 316 311 308 303 298 298 299
172 165 163 163 164 159 152 154 159 169 184 181 169 161 163 172 178 184 199 214 236 250 256 275 294 301 306 313 311 313 320 316 310 315 316 318 318 314 315 314 311 312 311 308 308 305 298 288 288 297 305 305 303 301 292 285 280 273 275 275 272 271 266 257 255 263 259 241 245 224 226 275 288 298 305 312 316 316 321 323 317 311 306 305 301 300 304 305
150 151 157 161 162 159 153 155 165 175 184 181 176 178 181 185 196 207 219 230 241 252 257 266 277 284 292 300 300 303 308 306 309 313 311 312 314 312 310 309 308 307 306 304 303 301 293 282 283 297 310 314 312 314 306 294 289 284 284 280 275 275 273 266 262 261 263 258 250 216 241 274 288 300 304 311 316 315 320 319 311 307 305 306 306 307 311 310
146 149 155 160 161 161 163 169 174 175 174 181 194 201 203 210 218 225 234 239 244 252 257 266 273 275 282 289 291 294 295 295 300 305 308 310 310 308 308 308 306 305 305 302 299 297 289 281 278 278 278 282 290 298 301 299 297 292 289 287 284 280 272 269 264 248 254 262 245 221 253 279 293 300 302 312 318 315 316 312 307 308 307 309 311 312 314 313
157 154 157 166 172 176 181 187 190 184 174 184 207 215 219 227 231 233 240 246 249 254 257 263 271 275 280 285 286 290 293 291 292 298 306 307 305 307 307 306 305 304 303 300 297 295 288 286 287 281 272 275 286 292 294 295 294 293 292 290 286 283 278 270 254 245 257 261 254 257 267 279 293 300 305 315 320 314 311 309 308 309 309 311 313 313 313 313
167 160 161 176 189 195 198 199 199 195 187 193 207 218 228 236 239 242 247 251 255 260 264 266 270 274 279 284 287 289 292 292 293 298 304 302 302 305 305 304 304 302 300 298 294 290 285 288 294 291 289 293 296 295 294 294 295 295 294 292 288 285 279 266 256 265 270 259 264 280 280 279 290 302 309 316 320 315 310 309 308 309 311 312 312 313 314 314
174 174 177 187 200 206 207 202 202 206 207 209 215 224 233 237 243 250 253 256 258 262 269 273 274 274 278 282 285 288 293 294 295 299 303 301 302 304 303 304 304 300 299 295 290 286 282 287 293 293 296 300 298 297 297 295 296 297 296 294 291 286 280 273 274 282 276 258 268 286 288 283 291 303 312 317 320 314 309 307 306 308 312 312 313 315 316 314
190 194 196 203 208 207 203 202 207 216 224 230 234 238 241 242 247 254 256 261 265 265 269 276 277 276 279 281 282 288 294 293 294 300 303 302 303 305 304 304 303 301 299 293 290 287 279 284 292 291 295 300 298 297 300 298 299 300 298 297 295 291 288 285 286 290 279 269 278 289 288 287 296 309 315 317 317 310 306 304 304 309 313 313 315 317 316 313
207 207 208 208 207 206 207 209 216 226 234 243 247 248 251 253 255 259 260 263 269 270 272 277 279 280 284 283 283 290 293 290 293 299 301 300 302 303 303 303 302 300 297 293 290 286 278 280 287 288 291 297 298 298 299 299 300 300 300 302 300 296 292 287 287 291 283 279 288 290 285 289 303 318 315 312 311 306 304 304 306 311 314 315 317 318 315 314
205 204 203 205 207 212 219 222 231 240 244 249 254 257 260 260 261 264 267 269 272 275 277 278 279 282 285 285 287 291 290 289 295 298 298 298 299 300 299 299 300 297 294 291 288 285 279 277 283 286 284 290 296 297 296 298 298 297 301 307 306 297 294 293 293 295 290 289 292 287 282 291 308 316 309 306 306 304 305 307 308 313 316 317 318 317 315 314
198 202 204 209 217 221 228 233 239 249 254 256 260 263 265 267 267 269 273 275 276 279 281 281 282 283 284 287 291 291 289 291 295 297 297 297 297 297 297 296 297 294 291 289 284 282 280 276 279 280 277 285 291 291 294 301 301 298 303 312 312 306 304 300 296 296 296 292 288 284 286 297 307 307 304 304 305 307 308 308 310 315 319 319 318 316 315 313
Height
3149 3150 3150 3151 3152 3153 3153 3152 3152 3152 3152 3152 3152 3152 3152 3152 3152 3152 3153 3153 3153 3153 3152 3152 3152 3152 3152 3152 3152 3152 3152 3152 3152 3152 3152 3152 3151 3151 3151 3151 3151 3150 3150 3150 3150 3150 3150 3150 3150 3150 3150 3150 3151 3151 3151 3151 3152 3152 3152 3153 3153 3152 3152 3152 3152 3152 3152 3152 3152 3152 3152 3152 3153 3153 3153 3153 3153 3153 3154 3154 3154 3154 3155 3155 3155 3155 3155 3155
3150 3150 3151 3151 3152 3152 3152 3152 3152 3152 3152 3152 3152 3152 3152 3152 3152 3152 3152 3153 3153 3153 3153 3153 3152 3152 3152 3152 3152 3152 3152 3152 3152 3151 3151 3151 3151 3151 3151 3150 3150 3150 3149 3149 3150 3149 3149 3149 3149 3150 3150 3150 3150 3150 3150 3151 3151 3151 3151 3152 3152 3151 3151 3152 3152 3151 3151 3151 3151 3151 3151 3151 3152 3152 3152 3152 3152 3153 3153 3153 3153 3153 3153 3154 3154 3153 3153 3153
3150 3151 3151 3152 3152 3152 3152 3152 3152 3152 3152 3152 3152 3152 3151 3151 3151 3152 3152 3152 3152 3152 3152 3152 3152 3151 3152 3152 3152 3152 3152 3151 3151 3151 3151 3150 3150 3150 3150 3150 3149 3149 3149 3149 3149 3149 3148 3148 3149 3149 3149 3150 3150 3150 3150 3150 3150 3150 3150 3151 3150 3150 3151 3151 3151 3151 3151 3150 3150 3150 3150 3150 3151 3151 3151 3151 3152 3152 3152 3152 3152 3152 3152 3152 3152 3151 3151 3151
3151 3151 3152 3153 3153 3152 3152 3152 3152 3152 3152 3152 3152 3152 3151 3151 3151 3151 3151 3151 3152 3151 3151 3151 3151 3151 3151 3151 3151 3151 3151 3151 3150 3150 3150 3150 3150 3149 3149 3149 3149 3148 3148 3148 3148 3148 3147 3147 3148 3148 3149 3149 3149 3149 3149 3149 3149 3149 3149 3149 3149 3149 3150 3150 3150 3150 3150 3149 3149 3149 3149 3149 3150 3150 3150 3151 3151 3151 3151 3151 3151 3151 3151 3150 3150 3150 3149 3149
3151 3152 3152 3153 3153 3152 3152 3152 3152 3151 3151 3151 3151 3151 3151 3151 3151 3151 3151 3151 3151 3151 3151 3151 3151 3151 3151 3151 3151 3151 3150 3150 3150 3150 3150 3149 3149 3149 3149 3148 3148 3148 3147 3147 3147 3147 3147 3147 3147 3147 3147 3148 3148 3148 3148 3148 3148 3148 3148 3148 3149 3149 3149 3149 3149 3149 3148 3148 3148 3148 3148 3148 3148 3148 3149 3149 3149 3149 3150 3149 3149 3149 3149 3149 3148 3148 3147 3147
3152 3152 3152 3152 3152 3152 3152 3152 3152 3151 3151 3151 3151 3151 3151 3151 3151 3151 3150 3150 3150 3150 3150 3150 3150 3150 3150 3150 3150 3150 3150 3149 3149 3149 3149 3149 3148 3148 3148 3147 3147 3147 3147 3146 3146 3146 3146 3146 3146 3146 3146 3146 3147 3147 3147 3147 3147 3148 3147 3147 3148 3148 3148 3148 3148 3147 3147 3147 3147 3147 3147 3147 3147 3147 3147 3148 3148 3148 3148 3148 3147 3147 3147 3146 3146 3146 3145 3145
3152 3152 3152 3152 3152 3152 3152 3152 3152 3152 3151 3151 3151 3151 3151 3151 3151 3150 3150 3150 3150 3150 3149 3149 3149 3149 3149 3149 3149 3149 3149 3149 3149 3149 3148 3148 3148 3147 3147 3146 3146 3146 3146 3145 3145 3145 3145 3145 3145 3146 3146 3146 3145 3145 3146 3146 3146 3147 3146 3146 3147 3147 3146 3146 3146 3146 3146 3145 3145 3145 3145 3145 3145 3145 3146 3146 3146 3146 3146 3146 3145 3145 3145 3144 3144 3143 3143 3142
3152 3152 3152 3152 3152 3152 3152 3152 3152 3152 3151 3151 3150 3150 3150 3150 3150 3150 3150 3150 3149 3149 3149 3149 3149 3149 3148 3148 3148 3148 3148 3148 3148 3148 3147 3147 3146 3146 3145 3145 3145 3145 3144 3144 3144 3144 3144 3144 3145 3145 3145 3145 3144 3145 3145 3145 3145 3145 3145 3145 3145 3145 3145 3145 3145 3144 3144 3144 3144 3144 3144 3144 3144 3144 3144 3144 3144 3144 3144 3144 3143 3143 3142 3142 3141 3141 3141 3140
3152 3152 3152 3152 3152 3152 3152 3152 3152 3151 3151 3150 3150 3150 3150 3149 3149 3149 3149 3149 3149 3148 3148 3148 3148 3148 3148 3148 3148 3148 3147 3147 3147 3147 3146 3146 3145 3145 3144 3144 3144 3143 3143 3143 3143 3143 3143 3143 3144 3144 3144 3144 3144 3144 3144 3144 3144 3144 3144 3144 3144 3143 3143 3143 3143 3143 3143 3143 3143 3142 3142 3142 3142 3142 3142 3142 3142 3142 3142 3141 3141 3141 3140 3140 3139 3139 3139 3138
3152 3152 3152 3152 3152 3152 3151 3151 3151 3151 3150 3150 3150 3150 3149 3149 3149 3149 3149 3148 3148 3148 3148 3148 3148 3147 3147 3147 3148 3147 3147 3147 3147 3146 3145 3145 3144 3144 3143 3143 3142 3142 3142 3142 3142 3142 3142 3143 3143 3143 3143 3143 3143 3143 3143 3143 3143 3142 3143 3142 3142 3142 3142 3142 3141 3141 3141 3141 3141 3141 3140 3140 3140 3140 3139 3140 3140 3140 3140 3139 3139 3138 3138 3138 3137 3137 3137 3136
3152 3152 3152 3152 3152 3151 3151 3150 3150 3150 3149 3149 3149 3149 3149 3149 3148 3148 3148 3148 3148 3148 3148 3148 3147 3147 3147 3147 3147 3147 3146 3146 3146 3145 3144 3144 3143 3143 3142 3142 3142 3142 3141 3141 3141 3141 3141 3142 3142 3142 3142 3141 3141 3142 3142 3141 3141 3141 3141 3141 3141 3140 3140 3140 3140 3140 3139 3139 3139 3139 3138 3138 3138 3137 3138 3138 3138 3137 3137 3137 3137 3136 3136 3136 3135 3135 3134 3134
3152 3152 3151 3151 3151 3151 3151 3150 3150 3149 3149 3149 3149 3148 3148 3148 3148 3148 3148 3148 3148 3148 3148 3147 3147 3147 3147 3147 3147 3146 3146 3145 3145 3144 3144 3143 3143 3142 3142 3141 3141 3141 3141 3140 3140 3140 3141 3141 3141 3141 3141 3140 3140 3140 3140 3140 3140 3140 3140 3139 3139 3139 3139 3138 3138 3138 3138 3138 3138 3138 3137 3135 3136 3136 3136 3136 3136 3135 3135 3135 3134 3134 3134 3133 3133 3133 3132 3132
3151 3151 3151 3151 3151 3151 3151 3150 3150 3149 3149 3148 3148 3148 3148 3148 3148 3148 3148 3148 3148 3148 3147 3147 3147 3147 3147 3147 3147 3146 3145 3145 3144 3144 3143 3143 3142 3141 3141 3141 3140 3140 3140 3140 3140 3140 3140 3140 3140 3140 3140 3139 3139 3139 3139 3139 3139 3138 3138 3138 3138 3138 3137 3137 3137 3137 3136 3136 3137 3137 3135 3133 3134 3134 3134 3133 3133 3133 3132 3132 3132 3131 3131 3131 3131 3130 3130 3129
3151 3151 3151 3151 3151 3151 3151 3150 3150 3149 3149 3148 3148 3148 3148 3148 3148 3148 3148 3148 3148 3148 3148 3147 3147 3147 3147 3146 3146 3146 3145 3144 3144 3143 3143 3142 3141 3141 3141 3140 3140 3140 3139 3139 3139 3139 3139 3139 3139 3139 3138 3138 3138 3138 3138 3138 3138 3137 3137 3137 3136 3136 3135 3135 3136 3135 3135 3135 3135 3136 3134 3132 3132 3132 3131 3131 3130 3130 3130 3130 3129 3129 3129 3128 3128 3127 3127 3127
3151 3151 3151 3151 3151 3151 3151 3151 3150 3149 3149 3148 3148 3148 3148 3148 3148 3148 3148 3148 3148 3148 3148 3147 3147 3147 3147 3146 3146 3145 3145 3144 3144 3143 3142 3142 3141 3140 3140 3140 3139 3139 3138 3138 3138 3138 3138 3138 3138 3137 3137 3137 3137 3137 3137 3137 3136 3136 3136 3135 3135 3135 3134 3134 3135 3134 3134 3133 3134 3134 3132 3130 3130 3129 3129 3128 3128 3128 3127 3127 3127 3126 3126 3126 3125 3125 3124 3124
3152 3152 3152 3151 3151 3151 3151 3151 3150 3150 3149 3149 3148 3148 3148 3148 3148 3148 3148 3148 3148 3147 3147 3147 3147 3146 3146 3146 3146 3145 3145 3144 3143 3143 3142 3141 3141 3140 3139 3139 3138 3138 3138 3137 3137 3137 3137 3137 3136 3136 3136 3136 3136 3136 3136 3136 3135 3135 3135 3134 3134 3134 3134 3133 3133 3133 3133 3132 3132 3132 3129 3128 3128 3128 3127 3126 3126 3125 3125 3125 3124 3124 3123 3123 3122 3122 3122 3121
3152 3152 3152 3152 3151 3151 3151 3151 3151 3150 3150 3149 3149 3149 3148 3148 3148 3148 3148 3148 3148 3147 3147 3147 3146 3146 3146 3146 3145 3145 3144 3144 3143 3143 3142 3141 3141 3140 3139 3138 3138 3137 3137 3137 3136 3136 3136 3136 3136 3135 3135 3135 3135 3135 3135 3135 3134 3133 3134 3133 3133 3133 3133 3132 3132 3131 3131 3130 3129 3129 3126 3126 3126 3125 3125 3124 3124 3123 3122 3122 3122 3121 3120 3120 3119 3119 3119 3119
3153 3152 3152 3152 3151 3151 3151 3151 3151 3151 3150 3150 3149 3149 3149 3149 3149 3149 3148 3148 3148 3148 3147 3147 3147 3146 3146 3145 3145 3144 3143 3143 3143 3142 3142 3141 3140 3139 3138 3137 3137 3136 3136 3136 3136 3135 3135 3135 3135 3135 3134 3134 3134 3134 3134 3134 3133 3133 3133 3132 3132 3132 3132 3131 3130 3130 3129 3128 3127 3126 3123 3124 3124 3123 3122 3122 3121 3120 3120 3119 3118 3118 3117 3117 3116 3116 3116 3116
3153 3152 3152 3152 3152 3151 3151 3151 3151 3151 3151 3150 3150 3149 3149 3149 3149 3149 3149 3148 3148 3148 3147 3147 3146 3146 3146 3145 3144 3144 3143 3143 3142 3141 3141 3140 3139 3139 3138 3137 3136 3135 3135 3135 3135 3134 3134 3134 3134 3133 3133 3133 3132 3133 3133 3132 3132 3132 3132 3132 3131 3131 3130 3129 3129 3128 3127 3126 3125 3123 3121 3121 3122 3120 3119 3119 3118 3117 3116 3116 3115 3114 3114 3114 3113 3113 3113 3113
3153 3153 3153 3153 3152 3152 3151 3151 3151 3151 3151 3150 3150 3150 3149 3149 3149 3149 3149 3148 3148 3148 3147 3147 3146 3146 3145 3145 3144 3143 3143 3142 3141 3141 3140 3139 3139 3138 3137 3137 3136 3135 3135 3134 3134 3133 3133 3133 3132 3132 3132 3131 3131 3131 3131 3131 3131 3131 3130 3130 3130 3130 3129 3128 3127 3126 3126 3124 3122 3121 3119 3118 3118 3118 3117 3116 3114 3113 3113 3113 3112 3112 3111 3111 3110 3110 3110 3111
3153 3153 3153 3153 3152 3152 3152 3152 3151 3151 3151 3151 3150 3150 3149 3149 3149 3149 3149 3148 3148 3148 3147 3147 3146 3145 3144 3144 3143 3142 3142 3141 3141 3140 3139 3139 3138 3137 3137 3136 3136 3135 3134 3133 3133 3132 3132 3132 3131 3131 3131 3130 3130 3130 3130 3130 3130 3129 3130 3129 3129 3128 3127 3126 3126 3125 3124 3123 3120 3119 3117 3115 3115 3115 3114 3112 3110 3110 3110 3110 3109 3109 3108 3107 3107 3107 3107 3108
3153 3153 3153 3153 3152 3152 3152 3152 3152 3152 3151 3151 3150 3150 3150 3149 3149 3149 3149 3148 3148 3148 3147 3146 3145 3145 3144 3143 3142 3142 3141 3140 3140 3139 3138 3138 3137 3137 3136 3135 3135 3134 3133 3133 3132 3132 3131 3131 3130 3130 3130 3130 3130 3129 3129 3129 3129 3129 3128 3128 3128 3127 3126 3125 3124 3124 3123 3121 3118 3117 3114 3111 3112 3112 3110 3108 3107 3107 3107 3106 3106 3105 3104 3104 3103 3104 3105 3105
3153 3153 3152 3152 3152 3152 3152 3152 3152 3152 3151 3151 3150 3150 3150 3149 3149 3149 3148 3148 3148 3147 3146 3146 3145 3144 3143 3143 3142 3141 3140 3140 3139 3138 3138 3137 3136 3136 3135 3134 3134 3133 3132 3132 3131 3131 3130 3130 3129 3129 3129 3129 3129 3129 3128 3128 3128 3128 3128 3128 3127 3126 3126 3125 3123 3122 3122 3120 3117 3115 3111 3106 3106 3107 3106 3105 3104 3104 3104 3103 3102 3101 3101 3101 3101 3101 3101 3101
3152 3152 3152 3152 3152 3152 3152 3152 3152 3151 3151 3151 3150 3150 3149 3149 3149 3148 3148 3148 3147 3147 3146 3145 3145 3144 3143 3142 3142 3141 3140 3139 3139 3138 3137 3136 3136 3135 3134 3134 3133 3132 3132 3131 3130 3130 3130 3129 3129 3129 3128 3128 3128 3128 3128 3128 3128 3127 3127 3127 3126 3125 3125 3124 3123 3121 3120 3118 3116 3115 3109 3101 3100 3102 3102 3103 3102 3100 3101 3099 3098 3098 3098 3098 3097 3097 3097 3098
3152 3151 3151 3151 3151 3151 3151 3151 3151 3151 3151 3150 3150 3150 3149 3149 3148 3148 3148 3147 3147 3147 3146 3145 3145 3144 3143 3142 3141 3141 3140 3139 3138 3137 3137 3136 3135 3134 3133 3133 3132 3131 3131 3130 3130 3129 3129 3128 3128 3128 3128 3128 3128 3127 3127 3127 3127 3126 3126 3126 3125 3124 3124 3123 3122 3121 3119 3118 3115 3116 3111 3100 3096 3099 3099 3099 3099 3098 3098 3096 3095 3095 3095 3095 3094 3094 3094 3094
3151 3151 3151 3150 3151 3151 3151 3151 3151 3150 3150 3150 3150 3149 3149 3148 3148 3147 3147 3147 3147 3146 3146 3145 3144 3144 3143 3142 3141 3140 3139 3139 3138 3137 3136 3135 3134 3133 3133 3132 3131 3131 3130 3129 3129 3128 3128 3128 3128 3128 3127 3127 3127 3127 3127 3127 3126 3126 3125 3125 3124 3123 3123 3122 3121 3120 3119 3118 3115 3116 3115 3103 3093 3094 3096 3096 3096 3095 3095 3093 3092 3093 3092 3091 3091 3091 3091 3091
3150 3150 3150 3149 3149 3150 3150 3150 3150 3150 3150 3149 3149 3149 3148 3148 3147 3147 3147 3146 3146 3146 3146 3145 3144 3143 3143 3142 3141 3140 3139 3138 3137 3136 3136 3134 3134 3133 3132 3131 3131 3130 3129 3129 3129 3128 3128 3127 3127 3127 3127 3127 3127 3126 3126 3126 3126 3125 3124 3124 3123 3122 3122 3121 3120 3120 3118 3116 3114 3113 3115 3108 3094 3090 3093 3094 3094 3093 3092 3091 3090 3090 3090 3089 3088 3088 3088 3088
3150 3149 3149 3148 3148 3148 3148 3149 3149 3149 3149 3149 3148 3148 3148 3147 3147 3147 3147 3146 3146 3146 3145 3145 3144 3143 3142 3142 3141 3140 3139 3138 3137 3136 3135 3134 3133 3132 3132 3131 3130 3130 3129 3129 3128 3128 3127 3127 3127 3127 3127 3127 3126 3126 3126 3125 3125 3124 3124 3123 3122 3121 3121 3120 3119 3119 3117 3116 3113 3110 3112 3109 3095 3087 3090 3091 3091 3091 3090 3090 3089 3088 3088 3087 3086 3085 3085 3085
3148 3148 3148 3147 3147 3147 3148 3148 3148 3148 3148 3148 3148 3148 3147 3147 3147 3147 3147 3146 3146 3145 3145 3144 3144 3143 3142 3141 3140 3140 3139 3138 3137 3136 3135 3134 3133 3132 3131 3130 3130 3129 3129 3128 3128 3127 3127 3127 3127 3126 3126 3126 3126 3125 3125 3125 3124 3124 3123 3122 3121 3121 3119 3119 3118 3117 3116 3114 3112 3109 3110 3109 3094 3085 3088 3088 3088 3090 3088 3088 3087 3086 3086 3085 3084 3083 3082 3082
3148 3147 3147 3147 3147 3147 3147 3147 3148 3147 3147 3147 3147 3147 3147 3147 3147 3147 3146 3145 3145 3145 3145 3144 3143 3143 3142 3141 3140 3139 3138 3137 3137 3135 3135 3134 3133 3132 3131 3130 3130 3129 3128 3128 3127 3127 3126 3126 3126 3126 3126 3125 3125 3125 3124 3124 3123 3123 3123 3121 3121 3120 3118 3118 3116 3116 3116 3112 3109 3108 3108 3110 3099 3085 3084 3086 3086 3087 3086 3085 3085 3084 3083 3082 3081 3080 3080 3079
3147 3147 3147 3146 3147 3147 3147 3147 3147 3147 3146 3146 3146 3146 3146 3146 3146 3146 3145 3145 3145 3144 3144 3144 3143 3142 3142 3141 3140 3139 3138 3137 3136 3135 3134 3133 3132 3132 3131 3130 3129 3129 3128 3128 3127 3127 3126 3126 3126 3125 3125 3125 3124 3124 3124 3123 3123 3122 3122 3121 3121 3119 3117 3117 3115 3116 3115 3108 3107 3107 3106 3109 3101 3085 3082 3085 3084 3084 3084 3083 3082 3081 3079 3078 3077 3076 3076 3075
3146 3146 3146 3146 3146 3146 3146 3146 3146 3146 3146 3146 3146 3146 3146 3146 3146 3145 3145 3145 3144 3143 3144 3143 3143 3142 3141 3141 3140 3139 3138 3137 3136 3135 3134 3133 3132 3131 3131 3130 3129 3129 3128 3128 3127 3127 3126 3125 3125 3125 3125 3124 3124 3124 3123 3123 3122 3122 3121 3121 3121 3119 3118 3116 3114 3114 3112 3107 3106 3106 3106 3104 3094 3082 3081 3082 3081 3082 3081 3080 3079 3077 3076 3075 3074 3073 3072 3072
3146 3145 3145 3145 3145 3145 3145 3145 3145 3145 3145 3145 3145 3146 3146 3146 3145 3145 3144 3144 3143 3143 3143 3143 3142 3142 3141 3140 3139 3138 3137 3136 3136 3135 3134 3133 3132 3131 3130 3129 3129 3129 3128 3128 3127 3126 3126 3125 3124 3124 3124 3124 3123 3123 3123 3122 3121 3121 3120 3121 3120 3119 3119 3117 3114 3113 3110 3106 3104 3105 3105 3097 3085 3079 3079 3079 3078 3079 3078 3077 3076 3075 3074 3073 3071 3070 3069 3069
3145 3145 3144 3144 3144 3144 3144 3144 3145 3145 3145 3145 3145 3145 3145 3145 3144 3144 3144 3144 3143 3143 3143 3142 3142 3141 3141 3140 3139 3138 3137 3136 3135 3134 3133 3132 3131 3131 3130 3129 3129 3128 3128 3127 3126 3126 3126 3124 3123 3123 3123 3122 3122 3122 3122 3121 3120 3119 3119 3120 3119 3119 3119 3116 3113 3112 3109 3106 3104 3103 3101 3090 3080 3077 3076 3076 3076 3076 3076 3075 3074 3073 3072 3071 3069 3068 3067 3065
3144 3144 3144 3144 3144 3144 3144 3144 3144 3144 3145 3145 3145 3145 3145 3144 3144 3144 3144 3143 3143 3143 3142 3142 3142 3141 3140 3139 3139 3138 3137 3136 3135 3134 3133 3132 3131 3130 3129 3129 3128 3128 3127 3127 3126 3126 3125 3123 3122 3122 3121 3121 3121 3120 3120 3120 3119 3118 3117 3118 3117 3117 3117 3115 3112 3111 3111 3109 3103 3098 3092 3082 3077 3075 3072 3073 3073 3072 3073 3072 3071 3070 3068 3067 3066 3065 3064 3062
3144 3144 3144 3144 3144 3144 3144 3144 3144 3144 3145 3145 3145 3145 3144 3144 3143 3143 3143 3143 3143 3142 3142 3142 3141 3141 3140 3139 3138 3137 3137 3136 3134 3133 3132 3131 3131 3130 3129 3128 3127 3127 3127 3126 3126 3125 3124 3122 3121 3121 3120 3119 3119 3118 3118 3118 3117 3116 3115 3115 3114 3114 3114 3113 3111 3110 3112 3109 3099 3092 3085 3076 3074 3072 3068 3070 3070 3069 3070 3068 3067 3067 3065 3064 3063 3061 3059 3057
3144 3144 3144 3144 3144 3144 3144 3144 3144 3144 3144 3144 3144 3144 3144 3144 3143 3143 3143 3143 3142 3142 3142 3141 3141 3140 3140 3139 3138 3137 3136 3135 3134 3133 3132 3131 3130 3129 3129 3128 3127 3126 3126 3125 3125 3124 3123 3121 3119 3119 3118 3117 3117 3116 3116 3116 3115 3114 3113 3112 3112 3112 3111 3111 3110 3109 3109 3106 3095 3089 3084 3075 3073 3070 3064 3066 3067 3066 3067 3065 3064 3063 3061 3060 3058 3056 3054 3052
3143 3143 3144 3143 3143 3143 3143 3143 3144 3144 3144 3144 3144 3144 3143 3143 3143 3143 3143 3142 3142 3142 3142 3141 3141 3140 3139 3138 3138 3137 3136 3135 3134 3133 3132 3131 3130 3129 3128 3127 3126 3126 3125 3124 3124 3123 3122 3119 3117 3117 3116 3115 3115 3114 3113 3112 3112 3112 3111 3110 3110 3110 3109 3109 3109 3106 3104 3102 3093 3087 3083 3074 3067 3065 3061 3062 3064 3063 3063 3062 3061 3060 3058 3056 3054 3052 3050 3048
3143 3143 3143 3143 3143 3143 3143 3143 3143 3143 3143 3143 3143 3143 3143 3143 3143 3143 3143 3142 3142 3142 3141 3141 3140 3140 3139 3138 3137 3136 3135 3134 3133 3132 3131 3130 3129 3128 3127 3126 3125 3124 3123 3123 3122 3121 3121 3119 3116 3114 3114 3114 3113 3112 3111 3109 3109 3109 3107 3107 3107 3107 3107 3107 3107 3104 3101 3100 3093 3087 3082 3068 3057 3057 3059 3060 3061 3060 3060 3059 3058 3057 3055 3053 3050 3047 3045 3043
3142 3142 3142 3142 3142 3142 3142 3142 3143 3143 3143 3143 3143 3143 3143 3143 3143 3143 3142 3142 3142 3141 3141 3140 3140 3139 3138 3137 3136 3135 3135 3134 3133 3132 3131 3129 3128 3127 3126 3125 3124 3124 3123 3122 3121 3120 3120 3119 3116 3113 3112 3112 3110 3109 3109 3107 3107 3106 3104 3104 3104 3104 3105 3104 3102 3101 3100 3099 3095 3090 3081 3060 3047 3051 3055 3056 3058 3057 3056 3055 3053 3053 3050 3048 3046 3043 3041 3039
3142 3142 3141 3142 3142 3142 3142 3142 3142 3143 3143 3143 3143 3143 3143 3143 3143 3143 3142 3142 3142 3141 3140 3140 3139 3138 3137 3137 3136 3135 3134 3133 3132 3131 3130 3129 3128 3126 3125 3124 3123 3123 3121 3120 3120 3119 3118 3117 3114 3111 3110 3109 3108 3107 3105 3104 3104 3103 3101 3101 3100 3101 3103 3101 3099 3096 3096 3096 3092 3091 3080 3052 3039 3047 3052 3053 3055 3053 3052 3051 3048 3047 3045 3043 3041 3039 3037 3035
3141 3141 3141 3141 3142 3142 3142 3142 3142 3142 3143 3143 3143 3143 3143 3142 3142 3142 3142 3141 3141 3140 3140 3139 3138 3138 3137 3136 3135 3134 3133 3132 3131 3130 3129 3127 3127 3125 3124 3123 3122 3121 3120 3119 3118 3117 3116 3114 3111 3108 3106 3106 3105 3103 3102 3101 3100 3100 3099 3098 3098 3098 3098 3098 3096 3091 3092 3092 3087 3090 3081 3048 3032 3043 3049 3049 3051 3049 3048 3047 3043 3042 3040 3038 3037 3035 3033 3031
3141 3141 3141 3141 3142 3141 3141 3142 3142 3142 3143 3143 3142 3142 3142 3142 3142 3142 3141 3141 3140 3140 3139 3138 3137 3137 3136 3135 3134 3133 3132 3131 3129 3129 3127 3126 3125 3124 3123 3122 3121 3120 3119 3117 3116 3116 3115 3113 3109 3105 3102 3102 3101 3100 3100 3099 3098 3097 3096 3095 3095 3095 3094 3095 3093 3089 3089 3086 3081 3087 3076 3040 3028 3040 3045 3046 3047 3045 3045 3043 3039 3037 3035 3034 3032 3030 3029 3027
3140 3141 3141 3141 3141 3141 3141 3142 3142 3142 3142 3142 3142 3142 3142 3142 3142 3141 3141 3140 3140 3139 3138 3137 3137 3136 3135 3134 3133 3132 3131 3130 3128 3127 3126 3125 3124 3123 3121 3120 3119 3118 3117 3115 3115 3114 3113 3111 3109 3105 3101 3099 3097 3097 3097 3096 3096 3094 3092 3092 3092 3091 3091 3091 3089 3088 3085 3075 3074 3080 3061 3032 3030 3039 3040 3042 3043 3040 3041 3039 3035 3033 3030 3029 3027 3025 3024 3022
3141 3141 3141 3141 3141 3141 3141 3142 3142 3142 3142 3142 3142 3142 3142 3141 3141 3141 3140 3140 3139 3138 3137 3136 3136 3135 3134 3133 3132 3131 3130 3129 3127 3126 3124 3123 3122 3121 3120 3119 3117 3116 3115 3114 3112 3112 3110 3107 3107 3106 3103 3100 3096 3095 3094 3093 3093 3090 3087 3087 3087 3087 3088 3086 3086 3087 3078 3065 3066 3067 3047 3028 3031 3037 3037 3040 3040 3036 3036 3034 3031 3029 3026 3024 3023 3020 3019 3017
3141 3141 3141 3141 3141 3141 3141 3142 3142 3141 3141 3141 3142 3141 3141 3141 3141 3140 3139 3139 3138 3137 3136 3135 3134 3133 3132 3131 3130 3129 3128 3127 3126 3124 3123 3122 3120 3119 3118 3116 3115 3114 3113 3111 3110 3109 3106 3103 3103 3102 3100 3096 3094 3093 3092 3091 3089 3086 3083 3082 3082 3081 3082 3082 3083 3077 3068 3062 3057 3048 3038 3031 3028 3030 3034 3037 3036 3034 3031 3029 3027 3025 3022 3020 3018 3016 3015 3013
3141 3141 3141 3141 3141 3141 3141 3141 3141 3141 3141 3141 3141 3141 3141 3140 3140 3139 3139 3138 3137 3136 3135 3134 3133 3132 3131 3130 3129 3128 3126 3125 3124 3122 3121 3120 3118 3117 3116 3114 3113 3111 3110 3109 3107 3106 3103 3099 3099 3098 3094 3090 3090 3090 3089 3087 3084 3080 3078 3076 3076 3076 3075 3076 3073 3064 3060 3062 3049 3034 3037 3036 3024 3024 3031 3032 3031 3029 3026 3024 3022 3020 3018 3016 3014 3012 3010 3008
3141 3141 3141 3141 3141 3141 3141 3141 3141 3141 3141 3141 3141 3140 3140 3140 3139 3138 3137 3137 3135 3135 3134 3132 3132 3131 3129 3129 3127 3126 3125 3123 3122 3121 3119 3118 3116 3115 3113 3112 3110 3108 3107 3106 3104 3103 3101 3096 3094 3094 3090 3087 3086 3085 3084 3083 3079 3075 3073 3071 3070 3069 3068 3065 3061 3056 3057 3057 3041 3030 3036 3033 3023 3024 3028 3027 3027 3024 3021 3020 3018 3016 3014 3012 3009 3007 3005 3003
3141 3141 3141 3141 3140 3140 3141 3141 3141 3141 3141 3140 3140 3140 3139 3139 3138 3137 3136 3135 3134 3133 3132 3131 3130 3129 3128 3127 3125 3124 3123 3121 3120 3118 3117 3115 3114 3112 3110 3109 3107 3105 3104 3102 3101 3100 3098 3093 3091 3089 3086 3084 3083 3081 3080 3078 3075 3070 3067 3065 3064 3062 3060 3057 3052 3051 3052 3046 3035 3032 3032 3025 3022 3025 3024 3022 3023 3020 3017 3015 3013 3012 3010 3007 3005 3003 3000 2998
3140 3140 3140 3140 3140 3140 3140 3140 3140 3140 3140 3140 3139 3139 3138 3138 3137 3136 3135 3134 3132 3131 3130 3129 3128 3127 3126 3125 3123 3122 3121 3119 3117 3116 3115 3113 3111 3110 3108 3106 3104 3102 3100 3099 3097 3096 3094 3090 3087 3086 3083 3079 3078 3078 3076 3074 3071 3065 3060 3058 3058 3056 3054 3051 3048 3046 3045 3038 3032 3032 3028 3019 3020 3024 3021 3019 3018 3015 3013 3010 3008 3007 3006 3002 3000 2997 2994 2992
3140 3140 3140 3140 3140 3140 3140 3140 3140 3139 3139 3139 3138 3138 3137 3136 3136 3134 3133 3132 3131 3130 3129 3128 3126 3125 3124 3122 3121 3120 3119 3117 3115 3114 3112 3110 3108 3107 3105 3103 3101 3099 3097 3095 3093 3092 3090 3087 3083 3083 3080 3074 3073 3073 3072 3070 3067 3061 3054 3052 3053 3052 3048 3046 3043 3041 3039 3034 3030 3029 3024 3017 3018 3020 3017 3014 3013 3010 3008 3006 3004 3003 3001 2998 2995 2992 2989 2986
3140 3140 3140 3140 3139 3139 3139 3139 3139 3139 3138 3138 3137 3137 3136 3135 3134 3133 3131 3130 3129 3128 3127 3126 3124 3123 3122 3120 3119 3118 3116 3114 3113 3111 3109 3107 3105 3104 3102 3099 3098 3095 3093 3091 3089 3087 3086 3083 3080 3081 3078 3070 3069 3069 3067 3067 3064 3055 3048 3047 3047 3046 3044 3040 3038 3036 3034 3031 3027 3024 3019 3016 3017 3016 3012 3009 3008 3006 3003 3001 3000 2999 2996 2993 2989 2986 2984 2981